Project,Study,Ord_Occ,Event_Num,Cast_ID,Date_Time_UTC,Date_Time_PST,Lat_Dec,Lon_Dec,Sta_ID,Line,Sta,Depth,Pressure,PrQ,Temp1,Temp1Q,Temp2,Temp2Q,TempAve,Salt1,Salt1Q,Salt1_Corr,Salt2,Salt2Q,Salt2_Corr,SaltAve_Corr,Ox1,Ox1Q,Ox1_CruiseCorr,Ox1_StaCorr,Ox2,Ox2Q,Ox2_CruiseCorr,Ox2_StaCorr,OxAve_StaCorr,Ox1uM,Ox1uM_CruiseCorr,Ox1uM_StaCorr,Ox2uM,Ox2uM_CruiseCorr,Ox2uM_StaCorr,OxAveuM_StaCorr,FluorV,FluorQ,EstChl_CruiseCorr,EstChl_StaCorr,ISUSV,ISUSQ,EstNO3_CruiseCorr,EstNO3_StaCorr,SigThetaTS1,SigThetaTS1Q,SigThetaTS2,SigThetaTS2Q,BAT,XMiss,TransQ,pH,pHQ,SPAR,SPARQ,PAR,PARQ,PoT1,PoT2,DynHt,SVA,OxSat1,OxSat2,BTL_Depth,BTL_Temp,SaltB,OxB,OxBuM,Chl-a,Phaeo,NO3,NO2,NH4,PO4,SIL
CalCOFI,2101RL,026,,2101_026d,22-Jan-2021 07:56:56,21-Jan-2021 23:56:56,32.91679,-118.93368,090.0 045.0,090.0,045.0,2.000,2.014,,14.4168,,14.4171,,14.4170,33.4244,,33.4302,33.4207,,33.4227,33.4265,5.7913,,6.0611,6.0297,5.6861,,6.0372,5.9822,6.0060,252.361,264.4317,263.0125,247.778,281.0818,260.9424,261.9775,0.1168,,0.7089,0.6849, ,, , ,24.8824,,24.8795,,0.8341,81.1787,,,,2.8723E+00,,1.0000E-12,,14.4165,14.4168,0.0001,306.024,99.584,97.774,2,,33.4088,6.060,264.27,0.652,0.113,,,,,
CalCOFI,2101RL,026,,2101_026d,22-Jan-2021 07:57:10,21-Jan-2021 23:57:10,32.91672,-118.93369,090.0 045.0,090.0,045.0,3.000,3.021,,14.4184,,14.4182,,14.4183,33.4255,,33.4313,33.4220,,33.4240,33.4277,5.7970,,6.0670,6.0357,5.6850,,6.0360,5.9811,6.0084,252.606,264.6882,263.2682,247.728,281.3542,260.8895,262.0789,0.1157,,0.6999,0.6765, ,, , ,24.8829,,24.8803,,0.8359,81.1430,,,,3.1883E+00,,1.0000E-12,,14.4180,14.4177,0.0053,306.003,99.685,97.757,,,,,,,,,,,,
CalCOFI,2101RL,026,,2101_026d,22-Jan-2021 07:57:18,21-Jan-2021 23:57:18,32.91668,-118.93370,090.0 045.0,090.0,045.0,4.000,4.028,,14.4150,,14.4154,,14.4152,33.4249,,33.4307,33.4213,,33.4233,33.4270,5.7837,,6.0531,6.0218,5.7109,,6.0635,6.0085,6.0152,252.028,264.0831,262.6650,248.855,280.7115,262.0827,262.3739,0.1116,,0.6663,0.6451, ,, , ,24.8832,,24.8803,,0.8537,80.7812,,,,3.6873E+00,,1.0000E-12,,14.4145,14.4148,0.0095,306.007,99.450,98.196,,,,,,,,,,,,
CalCOFI,2101RL,026,,2101_026d,22-Jan-2021 07:57:20,21-Jan-2021 23:57:20,32.91668,-118.93370,090.0 045.0,090.0,045.0,5.000,5.036,,14.4124,,14.4120,,14.4122,33.4242,,33.4300,33.4205,,33.4225,33.4263,5.7815,,6.0508,6.0195,5.7310,,6.0849,6.0297,6.0246,251.934,263.9847,262.5669,249.731,280.6070,263.0102,262.7886,0.1080,,0.6368,0.6175, ,, , ,24.8833,,24.8805,,0.8376,81.1071,,,,3.5940E+00,,1.0000E-12,,14.4116,14.4113,0.0126,306.030,99.406,98.534,,,,,,,,,,,,
CalCOFI,2101RL,026,,2101_026d,22-Jan-2021 07:57:22,21-Jan-2021 23:57:22,32.91667,-118.93371,090.0 045.0,090.0,045.0,6.000,6.043,,14.4105,,14.4066,,14.4086,33.4237,,33.4295,33.4195,,33.4215,33.4255,5.7788,,6.0480,6.0167,5.7295,,6.0833,6.0281,6.0224,251.817,263.8622,262.4448,249.668,280.4769,262.9435,262.6942,0.1094,,0.6482,0.6282, ,, , ,24.8833,,24.8809,,0.8471,80.9155,,,,3.5355E+00,,1.0000E-12,,14.4097,14.4058,0.0157,306.058,99.356,98.498,,,,,,,,,,,,
CalCOFI,2101RL,026,,2101_026d,22-Jan-2021 07:57:24,21-Jan-2021 23:57:24,32.91666,-118.93372,090.0 045.0,090.0,045.0,7.000,7.050,,14.4022,,14.4019,,14.4021,33.4225,,33.4283,33.4188,,33.4208,33.4246,5.7830,,6.0524,6.0211,5.7217,,6.0750,6.0199,6.0205,251.996,264.0496,262.6316,249.328,280.6759,262.5835,262.6076,0.1124,,0.6728,0.6512, ,, , ,24.8842,,24.8814,,0.8382,81.0946,,,,3.3893E+00,,1.0000E-12,,14.4012,14.4008,0.0187,306.005,99.410,98.354,,,,,,,,,,,,
CalCOFI,2101RL,026,,2101_026d,22-Jan-2021 07:57:26,21-Jan-2021 23:57:26,32.91666,-118.93372,090.0 045.0,090.0,045.0,8.000,8.057,,14.3442,,14.3448,,14.3445,33.4151,,33.4209,33.4127,,33.4147,33.4178,5.8069,,6.0774,6.0460,5.7383,,6.0926,6.0375,6.0418,253.038,265.1404,263.7191,250.048,281.8346,263.3458,263.5325,0.1210,,0.7433,0.7171, ,, , ,24.8907,,24.8887,,0.8562,80.7316,,,,3.5248E+00,,1.0000E-12,,14.3430,14.3436,0.0218,305.407,99.700,98.521,,,,,,,,,,,,
CalCOFI,2101RL,026,,2101_026d,22-Jan-2021 07:57:28,21-Jan-2021 23:57:28,32.91666,-118.93372,090.0 045.0,090.0,045.0,9.000,9.064,,14.2469,,14.2442,,14.2456,33.4167,,33.4225,33.4139,,33.4159,33.4192,5.8413,,6.1134,6.0819,5.7851,,6.1424,6.0870,6.0845,254.531,266.7033,265.2773,252.082,283.4949,265.4993,265.3883,0.1446,,0.9367,0.8979, ,, , ,24.9124,,24.9108,,0.8838,80.1754,,,,3.5356E+00,,1.0000E-12,,14.2456,14.2429,0.0249,303.369,100.095,99.125,,,,,,,,,,,,
CalCOFI,2101RL,026,,2101_026d,22-Jan-2021 07:57:30,21-Jan-2021 23:57:30,32.91666,-118.93372,090.0 045.0,090.0,045.0,10.000,10.071,,14.2108,,14.2100,,14.2104,33.4267,,33.4325,33.4236,,33.4256,33.4291,5.8603,,6.1333,6.1017,5.8093,,6.1681,6.1126,6.1072,255.356,267.5669,266.1383,253.135,284.4123,266.6142,266.3763,0.1430,,0.9236,0.8856, ,, , ,24.9278,,24.9255,,0.8872,80.1067,,,,3.5205E+00,,1.0000E-12,,14.2093,14.2086,0.0279,301.936,100.354,99.477,,,,,,,,,,,,
CalCOFI,2101RL,026,,2101_026d,22-Jan-2021 07:57:32,21-Jan-2021 23:57:32,32.91666,-118.93373,090.0 045.0,090.0,045.0,11.000,11.078,,14.1747,,14.1745,,14.1746,33.4335,,33.4393,33.4301,,33.4321,33.4357,5.8748,,6.1485,6.1168,5.8049,,6.1634,6.1079,6.1124,255.983,268.2232,266.7927,252.939,285.1095,266.4066,266.5997,0.1416,,0.9121,0.8749, ,, , ,24.9406,,24.9380,,0.8837,80.1781,,,,3.4400E+00,,1.0000E-12,,14.1731,14.1730,0.0310,300.741,100.532,99.334,11,,33.4057,6.041,263.45,0.691,0.127,,,,,
CalCOFI,2101RL,026,,2101_026d,22-Jan-2021 07:57:34,21-Jan-2021 23:57:34,32.91666,-118.93374,090.0 045.0,090.0,045.0,12.000,12.085,,14.1588,,14.1585,,14.1587,33.4361,,33.4419,33.4328,,33.4348,33.4384,5.8781,,6.1519,6.1203,5.8021,,6.1604,6.1050,6.1127,256.127,268.3739,266.9430,252.815,285.2696,266.2754,266.6092,0.1426,,0.9203,0.8826, ,, , ,24.9460,,24.9435,,0.8798,80.2572,,,,3.1929E+00,,1.0000E-12,,14.1571,14.1568,0.0340,300.260,100.559,99.256,,,,,,,,,,,,
CalCOFI,2101RL,026,,2101_026d,22-Jan-2021 07:57:36,21-Jan-2021 23:57:36,32.91665,-118.93374,090.0 045.0,090.0,045.0,13.000,13.093,,14.1521,,14.1521,,14.1521,33.4398,,33.4456,33.4365,,33.4385,33.4421,5.8838,,6.1579,6.1262,5.8162,,6.1754,6.1199,6.1231,256.373,268.6315,267.1997,253.427,285.5432,266.9233,267.0615,0.1432,,0.9252,0.8872, ,, , ,24.9503,,24.9477,,0.8772,80.3086,,,,3.2930E+00,,1.0000E-12,,14.1502,14.1502,0.0370,299.880,100.644,99.486,,,,,,,,,,,,
CalCOFI,2101RL,026,,2101_026d,22-Jan-2021 07:57:43,21-Jan-2021 23:57:43,32.91664,-118.93374,090.0 045.0,090.0,045.0,14.000,14.100,,14.1471,,14.1477,,14.1474,33.4460,,33.4518,33.4423,,33.4443,33.4481,5.8890,,6.1633,6.1316,5.8504,,6.2117,6.1561,6.1439,256.601,268.8701,267.4377,254.917,285.7967,268.5009,267.9693,0.1491,,0.9735,0.9324, ,, , ,24.9561,,24.9532,,0.8726,80.4003,,,,3.4291E+00,,1.0000E-12,,14.1451,14.1456,0.0405,299.358,100.728,100.065,,,,,,,,,,,,
CalCOFI,2101RL,026,,2101_026d,22-Jan-2021 07:57:53,21-Jan-2021 23:57:53,32.91662,-118.93375,090.0 045.0,090.0,045.0,15.000,15.107,,14.1469,,14.1468,,14.1469,33.4489,,33.4547,33.4456,,33.4476,33.4512,5.8943,,6.1689,6.1372,5.8394,,6.2000,6.1444,6.1408,256.827,269.1067,267.6736,254.440,286.0481,267.9958,267.8347,0.1449,,0.9391,0.9002, ,, , ,24.9584,,24.9559,,0.8742,80.3692,,,,3.4783E+00,,1.0000E-12,,14.1447,14.1447,0.0444,299.164,100.819,99.879,,,,,,,,,,,,
CalCOFI,2101RL,026,,2101_026d,22-Jan-2021 07:57:59,21-Jan-2021 23:57:59,32.91661,-118.93375,090.0 045.0,090.0,045.0,16.000,16.114,,14.1444,,14.1446,,14.1445,33.4528,,33.4586,33.4495,,33.4515,33.4551,5.8997,,6.1745,6.1428,5.8552,,6.2168,6.1611,6.1520,257.066,269.3569,267.9230,255.126,286.3138,268.7221,268.3226,0.1379,,0.8818,0.8466, ,, , ,24.9620,,24.9594,,0.8684,80.4860,,,,3.2296E+00,,1.0000E-12,,14.1421,14.1423,0.0476,298.855,100.910,100.146,,,,,,,,,,,,
CalCOFI,2101RL,026,,2101_026d,22-Jan-2021 07:58:04,21-Jan-2021 23:58:04,32.91661,-118.93376,090.0 045.0,090.0,045.0,17.000,17.121,,14.1435,,14.1439,,14.1437,33.4567,,33.4625,33.4528,,33.4548,33.4587,5.9058,,6.1809,6.1492,5.8532,,6.2147,6.1590,6.1541,257.327,269.6301,268.1954,255.038,286.6041,268.6290,268.4122,0.1417,,0.9129,0.8757, ,, , ,24.9652,,24.9621,,0.8707,80.4383,,,,2.9917E+00,,1.0000E-12,,14.1410,14.1415,0.0506,298.576,101.013,100.113,,,,,,,,,,,,
CalCOFI,2101RL,026,,2101_026d,22-Jan-2021 07:58:12,21-Jan-2021 23:58:12,32.91660,-118.93376,090.0 045.0,090.0,045.0,18.000,18.128,,14.1434,,14.1437,,14.1436,33.4595,,33.4653,33.4562,,33.4582,33.4618,5.9031,,6.1781,6.1463,5.8356,,6.1960,6.1404,6.1434,257.212,269.5097,268.0754,254.270,286.4762,267.8158,267.9456,0.1353,,0.8605,0.8267, ,, , ,24.9675,,24.9648,,0.8667,80.5194,,,,3.6277E+00,,1.0000E-12,,14.1408,14.1411,0.0537,298.391,100.970,99.813,,,,,,,,,,,,
CalCOFI,2101RL,026,,2101_026d,22-Jan-2021 07:58:13,21-Jan-2021 23:58:13,32.91660,-118.93376,090.0 045.0,090.0,045.0,19.000,19.136,,14.1399,,14.1395,,14.1397,33.4636,,33.4694,33.4601,,33.4621,33.4658,5.8592,,6.1321,6.1006,5.8131,,6.1721,6.1166,6.1086,255.298,267.5061,266.0778,253.288,284.3478,266.7762,266.4270,0.1297,,0.8146,0.7838, ,, , ,24.9714,,24.9687,,0.8649,80.5559,,,,3.5790E+00,,1.0000E-12,,14.1372,14.1367,0.0567,298.048,100.214,99.422,,,,,,,,,,,,
CalCOFI,2101RL,026,,2101_026d,22-Jan-2021 07:58:18,21-Jan-2021 23:58:18,32.91658,-118.93376,090.0 045.0,090.0,045.0,20.000,20.143,,14.0996,,14.0985,,14.0991,33.4610,,33.4668,33.4574,,33.4594,33.4631,5.8581,,6.1310,6.0994,5.8010,,6.1592,6.1038,6.1016,255.248,267.4538,266.0256,252.759,284.2922,266.2161,266.1209,0.1281,,0.8015,0.7715, ,, , ,24.9778,,24.9752,,0.8521,80.8143,,,,3.6177E+00,,1.0000E-12,,14.0968,14.0956,0.0597,297.464,100.112,99.131,,,,,,,,,,,,
CalCOFI,2101RL,026,,2101_026d,22-Jan-2021 07:58:23,21-Jan-2021 23:58:23,32.91658,-118.93374,090.0 045.0,090.0,045.0,21.000,21.150,,14.0263,,14.0254,,14.0259,33.4596,,33.4654,33.4562,,33.4582,33.4618,5.7666,,6.0352,6.0040,5.7300,,6.0838,6.0287,6.0164,251.257,263.2760,261.8603,249.661,279.8541,262.9360,262.3982,0.1571,,1.0391,0.9937, ,, , ,24.9920,,24.9896,,0.8381,81.0962,,,,3.4364E+00,,1.0000E-12,,14.0233,14.0224,0.0626,296.141,98.401,97.772,21,,33.4521,5.989,261.19,1.151,0.439,,,,,
CalCOFI,2101RL,026,,2101_026d,22-Jan-2021 07:58:25,21-Jan-2021 23:58:25,32.91658,-118.93374,090.0 045.0,090.0,045.0,22.000,22.157,,13.9500,,13.9459,,13.9480,33.4596,,33.4654,33.4560,,33.4580,33.4617,5.5597,,5.8187,5.7882,5.5840,,5.9288,5.8742,5.8312,242.237,253.8339,252.4464,243.296,269.8237,256.1971,254.3218,0.1622,,1.0809,1.0327, ,, , ,25.0078,,25.0059,,0.8549,80.7585,,,,3.3924E+00,,1.0000E-12,,13.9469,13.9428,0.0656,294.660,94.724,95.128,,,,,,,,,,,,
CalCOFI,2101RL,026,,2101_026d,22-Jan-2021 07:58:28,21-Jan-2021 23:58:28,32.91657,-118.93373,090.0 045.0,090.0,045.0,23.000,23.164,,13.7271,,13.7153,,13.7212,33.4515,,33.4573,33.4470,,33.4490,33.4532,5.4980,,5.7541,5.7238,5.4638,,5.8011,5.7470,5.7354,239.542,251.0128,249.6336,238.052,266.8269,250.6450,250.1393,0.1589,,1.0538,1.0074, ,, , ,25.0475,,25.0464,,0.8562,80.7319,,,,3.0688E+00,,1.0000E-12,,13.7238,13.7121,0.0686,290.903,93.244,92.640,,,,,,,,,,,,
CalCOFI,2101RL,026,,2101_026d,22-Jan-2021 07:58:32,21-Jan-2021 23:58:32,32.91656,-118.93372,090.0 045.0,090.0,045.0,24.000,24.172,,13.5177,,13.5111,,13.5144,33.4475,,33.4533,33.4451,,33.4471,33.4502,5.4661,,5.7207,5.6906,5.4309,,5.7662,5.7122,5.7014,238.142,249.5472,248.1725,236.609,265.2700,249.1172,248.6449,0.1508,,0.9875,0.9454, ,, , ,25.0872,,25.0867,,0.8409,81.0414,,,,3.4815E+00,,1.0000E-12,,13.5144,13.5078,0.0715,287.143,92.305,91.697,,,,,,,,,,,,
CalCOFI,2101RL,026,,2101_026d,22-Jan-2021 07:58:35,21-Jan-2021 23:58:35,32.91656,-118.93372,090.0 045.0,090.0,045.0,25.000,25.179,,13.4796,,13.4784,,13.4790,33.4532,,33.4590,33.4494,,33.4514,33.4552,5.3939,,5.6452,5.6153,5.3469,,5.6769,5.6233,5.6193,234.992,246.2498,244.8849,232.944,261.7672,245.2369,245.0609,0.1504,,0.9842,0.9423, ,, , ,25.0993,,25.0967,,0.8350,81.1608,,,,3.2523E+00,,1.0000E-12,,13.4761,13.4749,0.0744,286.017,91.018,90.220,,,,,,,,,,,,
CalCOFI,2101RL,026,,2101_026d,22-Jan-2021 07:58:37,21-Jan-2021 23:58:37,32.91656,-118.93372,090.0 045.0,090.0,045.0,26.000,26.186,,13.4404,,13.4387,,13.4396,33.4531,,33.4589,33.4496,,33.4516,33.4553,5.3485,,5.5976,5.5679,5.3141,,5.6421,5.5886,5.5783,233.016,244.1813,242.8226,231.514,259.5698,243.7229,243.2728,0.1405,,0.9031,0.8665, ,, , ,25.1072,,25.1049,,0.8205,81.4556,,,,3.2337E+00,,1.0000E-12,,13.4368,13.4351,0.0773,285.293,90.180,89.594,,,,,,,,,,,,
CalCOFI,2101RL,026,,2101_026d,22-Jan-2021 07:58:40,21-Jan-2021 23:58:40,32.91656,-118.93370,090.0 045.0,090.0,045.0,27.000,27.193,,13.3838,,13.3826,,13.3832,33.4552,,33.4610,33.4517,,33.4537,33.4574,5.3183,,5.5660,5.5364,5.2663,,5.5913,5.5381,5.5373,231.695,242.7985,241.4439,229.431,258.1009,241.5175,241.4807,0.1289,,0.8080,0.7776, ,, , ,25.1203,,25.1178,,0.8137,81.5922,,,,3.1851E+00,,1.0000E-12,,13.3801,13.3789,0.0801,284.068,89.568,88.688,,,,,,,,,,,,
CalCOFI,2101RL,026,,2101_026d,22-Jan-2021 07:58:43,21-Jan-2021 23:58:43,32.91654,-118.93370,090.0 045.0,090.0,045.0,28.000,28.201,,13.3512,,13.3517,,13.3515,33.4597,,33.4655,33.4565,,33.4585,33.4620,5.3072,,5.5544,5.5248,5.2535,,5.5777,5.5245,5.5247,231.209,242.2898,240.9367,228.870,257.5604,240.9235,240.9301,0.1299,,0.8162,0.7853, ,, , ,25.1304,,25.1278,,0.8040,81.7919,,,,2.6497E+00,,1.0000E-12,,13.3473,13.3479,0.0830,283.139,89.323,88.419,,,,,,,,,,,,
CalCOFI,2101RL,026,,2101_026d,22-Jan-2021 07:58:46,21-Jan-2021 23:58:46,32.91654,-118.93370,090.0 045.0,090.0,045.0,29.000,29.208,,13.3519,,13.3520,,13.3520,33.4760,,33.4818,33.4719,,33.4739,33.4779,5.1911,,5.4329,5.4037,5.1677,,5.4866,5.4337,5.4187,226.147,236.9909,235.6536,225.129,251.9314,236.9627,236.3082,0.1169,,0.7097,0.6857, ,, , ,25.1429,,25.1397,,0.8018,81.8374,,,,2.1914E+00,,1.0000E-12,,13.3479,13.3480,0.0858,281.975,87.379,86.983,,,,,,,,,,,,
CalCOFI,2101RL,026,,2101_026d,22-Jan-2021 07:58:48,21-Jan-2021 23:58:48,32.91654,-118.93370,090.0 045.0,090.0,045.0,30.000,30.215,,13.2388,,13.2328,,13.2358,33.4825,,33.4883,33.4788,,33.4808,33.4846,5.1417,,5.3812,5.3522,5.0968,,5.4113,5.3587,5.3555,223.992,234.7350,233.4045,222.037,249.5350,233.6891,233.5468,0.1120,,0.6695,0.6482, ,, , ,25.1706,,25.1689,,0.7964,81.9469,,,,3.3899E+00,,1.0000E-12,,13.2347,13.2287,0.0886,279.359,86.351,85.585,,,,,,,,,,,,
CalCOFI,2101RL,026,,2101_026d,22-Jan-2021 07:58:50,21-Jan-2021 23:58:50,32.91654,-118.93370,090.0 045.0,090.0,045.0,31.000,31.222,,13.1376,,13.1360,,13.1368,33.4823,,33.4881,33.4786,,33.4806,33.4844,5.1268,,5.3656,5.3367,5.0713,,5.3842,5.3317,5.3342,223.338,234.0504,232.7219,220.922,248.8078,232.5086,232.6153,0.1095,,0.6491,0.6290, ,, , ,25.1907,,25.1882,,0.7935,82.0073,,,,3.5995E+00,,1.0000E-12,,13.1334,13.1317,0.0914,277.467,85.922,84.987,,,,,,,,,,,,
CalCOFI,2101RL,026,,2101_026d,22-Jan-2021 07:58:53,21-Jan-2021 23:58:53,32.91654,-118.93370,090.0 045.0,090.0,045.0,32.000,32.230,,13.0966,,13.0959,,13.0963,33.4882,,33.4940,33.4851,,33.4871,33.4906,5.1189,,5.3573,5.3284,5.0790,,5.3924,5.3399,5.3342,222.990,233.6861,232.3587,221.251,248.4208,232.8569,232.6078,0.1069,,0.6277,0.6091, ,, , ,25.2035,,25.2012,,0.7902,82.0739,,,,3.0338E+00,,1.0000E-12,,13.0922,13.0915,0.0942,276.277,85.720,85.048,,,,,,,,,,,,
CalCOFI,2101RL,026,,2101_026d,22-Jan-2021 07:58:55,21-Jan-2021 23:58:55,32.91652,-118.93370,090.0 045.0,090.0,045.0,33.000,33.237,,13.0852,,13.0855,,13.0854,33.4924,,33.4982,33.4889,,33.4909,33.4946,5.1256,,5.3644,5.3354,5.0708,,5.3837,5.3312,5.3333,223.282,233.9918,232.6635,220.895,248.7455,232.4800,232.5718,0.0992,,0.5647,0.5501, ,, , ,25.2090,,25.2063,,0.7842,82.1967,,,,2.8435E+00,,1.0000E-12,,13.0807,13.0810,0.0970,275.782,85.815,84.896,,,,,,,,,,,,
CalCOFI,2101RL,026,,2101_026d,22-Jan-2021 07:58:58,21-Jan-2021 23:58:58,32.91652,-118.93370,090.0 045.0,090.0,045.0,34.000,34.244,,13.0877,,13.0884,,13.0881,33.4956,,33.5014,33.4923,,33.4943,33.4979,5.1254,,5.3641,5.3352,5.0595,,5.3717,5.3192,5.3272,223.274,233.9834,232.6551,220.399,248.7366,231.9548,232.3050,0.0995,,0.5671,0.5524, ,, , ,25.2111,,25.2084,,0.7778,82.3288,,,,3.4333E+00,,1.0000E-12,,13.0831,13.0837,0.0998,275.612,85.818,84.712,,,,,,,,,,,,
CalCOFI,2101RL,026,,2101_026d,22-Jan-2021 07:59:00,21-Jan-2021 23:59:00,32.91652,-118.93370,090.0 045.0,090.0,045.0,35.000,35.251,,13.1033,,13.1045,,13.1039,33.5039,,33.5097,33.5011,,33.5031,33.5064,5.0869,,5.3238,5.2951,5.0354,,5.3461,5.2937,5.2944,221.593,232.2238,230.9007,219.352,246.8673,230.8463,230.8735,0.0976,,0.5515,0.5378, ,, , ,25.2144,,25.2120,,0.7784,82.3165,,,,3.6914E+00,,1.0000E-12,,13.0985,13.0998,0.1026,275.322,85.204,84.342,,,,,,,,,,,,
CalCOFI,2101RL,026,,2101_026d,22-Jan-2021 07:59:01,21-Jan-2021 23:59:01,32.91652,-118.93371,090.0 045.0,090.0,045.0,36.000,36.259,,13.0747,,13.0731,,13.0739,33.5083,,33.5141,33.5048,,33.5068,33.5105,5.0269,,5.2611,5.2325,4.9904,,5.2983,5.2461,5.2393,218.979,229.4874,228.1725,217.390,243.9605,228.7691,228.4708,0.0871,,0.4655,0.4574, ,, , ,25.2235,,25.2211,,0.7728,82.4325,,,,3.4979E+00,,1.0000E-12,,13.0698,13.0682,0.1053,274.482,84.153,83.537,,,,,,,,,,,,
CalCOFI,2101RL,026,,2101_026d,22-Jan-2021 07:59:03,21-Jan-2021 23:59:03,32.91652,-118.93372,090.0 045.0,090.0,045.0,37.000,37.266,,13.0116,,13.0075,,13.0096,33.5123,,33.5181,33.5089,,33.5109,33.5145,4.9744,,5.2061,5.1777,4.9326,,5.2369,5.1850,5.1814,216.689,227.0902,225.7825,214.869,241.4140,226.0999,225.9412,0.0800,,0.4073,0.4030, ,, , ,25.2392,,25.2373,,0.7687,82.5165,,,,3.6955E+00,,1.0000E-12,,13.0066,13.0025,0.1081,273.017,83.167,82.460,,,,,,,,,,,,
CalCOFI,2101RL,026,,2101_026d,22-Jan-2021 07:59:06,21-Jan-2021 23:59:06,32.91652,-118.93372,090.0 045.0,090.0,045.0,38.000,38.273,,12.9360,,12.9331,,12.9346,33.5089,,33.5147,33.5053,,33.5073,33.5110,4.9359,,5.1658,5.1376,4.8962,,5.1983,5.1465,5.1421,215.008,225.3306,224.0281,213.280,239.5447,224.4176,224.2229,0.0764,,0.3778,0.3754, ,, , ,25.2515,,25.2493,,0.7701,82.4875,,,,3.4948E+00,,1.0000E-12,,12.9309,12.9279,0.1108,271.862,82.393,81.723,,,,,,,,,,,,
CalCOFI,2101RL,026,,2101_026d,22-Jan-2021 07:59:09,21-Jan-2021 23:59:09,32.91652,-118.93371,090.0 045.0,090.0,045.0,39.000,39.280,,12.8885,,12.8866,,12.8876,33.5102,,33.5160,33.5068,,33.5088,33.5124,4.9055,,5.1340,5.1059,4.8658,,5.1660,5.1143,5.1101,213.682,223.9425,222.6442,211.951,238.0701,223.0105,222.8274,0.0758,,0.3729,0.3708, ,, , ,25.2619,,25.2597,,0.7704,82.4809,,,,3.2152E+00,,1.0000E-12,,12.8832,12.8813,0.1136,270.897,81.805,81.138,,,,,,,,,,,,
CalCOFI,2101RL,026,,2101_026d,22-Jan-2021 07:59:10,21-Jan-2021 23:59:10,32.91652,-118.93372,090.0 045.0,090.0,045.0,40.000,40.288,,12.8551,,12.8546,,12.8549,33.5115,,33.5173,33.5077,,33.5097,33.5135,4.9012,,5.1295,5.1014,4.8499,,5.1491,5.0975,5.0995,213.492,223.7436,222.4459,211.259,237.8589,222.2778,222.3619,0.0735,,0.3541,0.3532, ,, , ,25.2695,,25.2667,,0.7640,82.6123,,,,3.7024E+00,,1.0000E-12,,12.8497,12.8492,0.1163,270.201,81.678,80.821,,,,,,,,,,,,
CalCOFI,2101RL,026,,2101_026d,22-Jan-2021 07:59:12,21-Jan-2021 23:59:12,32.91650,-118.93370,090.0 045.0,090.0,045.0,41.000,41.295,,12.8362,,12.8357,,12.8360,33.5101,,33.5159,33.5063,,33.5083,33.5121,4.8999,,5.1281,5.1000,4.8422,,5.1409,5.0893,5.0947,213.434,223.6829,222.3854,210.922,237.7944,221.9211,222.1533,0.0752,,0.3680,0.3662, ,, , ,25.2722,,25.2694,,0.7594,82.7083,,,,2.7248E+00,,1.0000E-12,,12.8307,12.8302,0.1190,269.971,81.623,80.659,,,,,,,,,,,,
CalCOFI,2101RL,026,,2101_026d,22-Jan-2021 07:59:13,21-Jan-2021 23:59:13,32.91650,-118.93370,090.0 045.0,090.0,045.0,42.000,42.302,,12.8232,,12.8234,,12.8233,33.5081,,33.5139,33.5046,,33.5066,33.5103,4.8899,,5.1177,5.0896,4.8309,,5.1289,5.0774,5.0835,212.999,223.2276,221.9314,210.431,237.3106,221.4012,221.6663,0.0732,,0.3516,0.3509, ,, , ,25.2732,,25.2704,,0.7593,82.7106,,,,3.3158E+00,,1.0000E-12,,12.8176,12.8178,0.1217,269.904,81.434,80.450,,,,,,,,,,,,
CalCOFI,2101RL,026,,2101_026d,22-Jan-2021 07:59:16,21-Jan-2021 23:59:16,32.91650,-118.93370,090.0 045.0,090.0,045.0,43.000,43.310,,12.8098,,12.8071,,12.8085,33.5063,,33.5121,33.5025,,33.5045,33.5083,4.8071,,5.0310,5.0032,4.7663,,5.0603,5.0090,5.0061,209.394,219.4538,218.1689,207.617,233.3018,218.4219,218.2954,0.0730,,0.3500,0.3494, ,, , ,25.2745,,25.2720,,0.7621,82.6533,,,,3.6941E+00,,1.0000E-12,,12.8040,12.8014,0.1245,269.807,80.033,79.347,,,,,,,,,,,,
CalCOFI,2101RL,026,,2101_026d,22-Jan-2021 07:59:18,21-Jan-2021 23:59:18,32.91648,-118.93370,090.0 045.0,090.0,045.0,44.000,44.317,,12.6933,,12.6796,,12.6865,33.4963,,33.5021,33.4928,,33.4948,33.4985,4.6777,,4.8956,4.8683,4.6658,,4.9535,4.9027,4.8855,203.755,213.5509,212.2836,203.236,227.0312,213.7835,213.0336,0.0714,,0.3369,0.3371, ,, , ,25.2895,,25.2895,,0.7592,82.7134,,,,3.3608E+00,,1.0000E-12,,12.6875,12.6738,0.1272,268.395,77.687,77.465,,,,,,,,,,,,
CalCOFI,2101RL,026,,2101_026d,22-Jan-2021 07:59:20,21-Jan-2021 23:59:20,32.91647,-118.93370,090.0 045.0,090.0,045.0,45.000,45.324,,12.5334,,12.5245,,12.5290,33.4911,,33.4969,33.4887,,33.4907,33.4938,4.5370,,4.7483,4.7215,4.5454,,4.8257,4.7753,4.7484,197.619,207.1278,205.8797,197.986,220.2078,208.2250,207.0524,0.0686,,0.3139,0.3157, ,, , ,25.3165,,25.3164,,0.7595,82.7070,,,,3.5665E+00,,1.0000E-12,,12.5275,12.5185,0.1299,265.836,75.096,75.221,,,,,,,,,,,,
CalCOFI,2101RL,026,,2101_026d,22-Jan-2021 07:59:22,21-Jan-2021 23:59:22,32.91646,-118.93370,090.0 045.0,090.0,045.0,46.000,46.331,,12.3851,,12.3759,,12.3805,33.4983,,33.5041,33.4946,,33.4966,33.5004,4.5015,,4.7112,4.6845,4.4744,,4.7503,4.7002,4.6924,196.067,205.5031,204.2599,194.886,218.4820,204.9429,204.6014,0.0669,,0.3000,0.3027, ,, , ,25.3507,,25.3496,,0.7605,82.6857,,,,3.6928E+00,,1.0000E-12,,12.3790,12.3699,0.1325,262.598,74.282,73.819,,,,,,,,,,,,
CalCOFI,2101RL,026,,2101_026d,22-Jan-2021 07:59:24,21-Jan-2021 23:59:24,32.91645,-118.93370,090.0 045.0,090.0,045.0,47.000,47.339,,12.2809,,12.2752,,12.2781,33.4994,,33.5052,33.4959,,33.4979,33.5016,4.3920,,4.5966,4.5703,4.4014,,4.6727,4.6229,4.5966,191.292,200.5047,199.2763,191.702,213.1721,201.5718,200.4241,0.0670,,0.3008,0.3034, ,, , ,25.3716,,25.3700,,0.7586,82.7240,,,,3.6947E+00,,1.0000E-12,,12.2748,12.2691,0.1352,260.627,72.318,72.463,,,,,,,,,,,,
CalCOFI,2101RL,026,,2101_026d,22-Jan-2021 07:59:26,21-Jan-2021 23:59:26,32.91644,-118.93370,090.0 045.0,090.0,045.0,48.000,48.346,,12.1328,,12.1175,,12.1252,33.4955,,33.5013,33.4930,,33.4950,33.4982,4.2978,,4.4980,4.4720,4.2969,,4.5617,4.5124,4.4922,187.186,196.2065,194.9910,187.146,208.6062,196.7482,195.8696,0.0615,,0.2557,0.2613, ,, , ,25.3968,,25.3977,,0.7599,82.6979,,,,3.6947E+00,,1.0000E-12,,12.1266,12.1113,0.1378,258.250,70.546,70.508,,,,,,,,,,,,
CalCOFI,2101RL,026,,2101_026d,22-Jan-2021 07:59:28,21-Jan-2021 23:59:28,32.91644,-118.93368,090.0 045.0,090.0,045.0,49.000,49.353,,11.9826,,11.9807,,11.9817,33.5034,,33.5092,33.4996,,33.5016,33.5054,4.2946,,4.4946,4.4687,4.2697,,4.5328,4.4836,4.4762,187.041,196.0547,194.8397,185.956,208.4449,195.4882,195.1640,0.0591,,0.2361,0.2429, ,, , ,25.4312,,25.4287,,0.7588,82.7198,,,,3.6947E+00,,1.0000E-12,,11.9763,11.9744,0.1404,254.983,70.276,69.864,,,,,,,,,,,,
CalCOFI,2101RL,026,,2101_026d,22-Jan-2021 07:59:30,21-Jan-2021 23:59:30,32.91643,-118.93368,090.0 045.0,090.0,045.0,50.000,50.361,,11.9073,,11.9033,,11.9053,33.5030,,33.5088,33.4989,,33.5009,33.5049,4.2507,,4.4487,4.4229,4.2205,,4.4806,4.4315,4.4272,185.127,194.0511,192.8421,183.812,206.3165,193.2183,193.0302,0.0556,,0.2074,0.2161, ,, , ,25.4452,,25.4427,,0.7566,82.7654,,,,3.6947E+00,,1.0000E-12,,11.9009,11.8969,0.1429,253.678,69.448,68.947,,,,,,,,,,,,
CalCOFI,2101RL,026,,2101_026d,22-Jan-2021 07:59:33,21-Jan-2021 23:59:33,32.91642,-118.93368,090.0 045.0,090.0,045.0,51.000,51.368,,11.8122,,11.8061,,11.8092,33.5078,,33.5136,33.5057,,33.5077,33.5107,4.0934,,4.2841,4.2588,4.0958,,4.3481,4.2996,4.2792,178.272,186.8753,185.6877,178.377,198.6937,187.4640,186.5759,0.0550,,0.2025,0.2115, ,, , ,25.4667,,25.4662,,0.7545,82.8105,,,,3.6312E+00,,1.0000E-12,,11.8057,11.7996,0.1455,251.651,66.746,66.775,51,,33.5066,4.419,192.71,0.352,0.408,,,,,